Regional Weather Roundup
Issued by NWS San Angelo, TX

Home | Current Version | Previous Version | Text Only | Print | Product List | Glossary On
Versions: 1 2 3 4 5 6 7 8 9 10 11 12 13 14 15 16 17 18 19 20 21 22 23 24 25 26 27 28 29 30 31 32 33 34 35 36 37 38 39 40 41 42 43 44 45 46 47 48 49 50
000
ASUS44 KSJT 180710
RWRSJT
WEST CENTRAL TEXAS REGIONAL WEATHER ROUNDUP
NATIONAL WEATHER SERVICE SAN ANGELO TX
200 AM CDT SAT APR 18 2015

NOTE: "FAIR" INDICATES FEW OR NO CLOUDS BELOW 12,000 FEET WITH NO
SIGNIFICANT WEATHER AND/OR OBSTRUCTIONS TO VISIBILITY.

TXZ049-054-064>066-071>073-076>078-098-099-113-114-127-128-139-140-
154-155-168>170-180800
...LOCATIONS ACROSS WEST CENTRAL TEXAS...

CITY           SKY/WX    TMP DP  RH WIND       PRES   REMARKS
SAN ANGELO     CLEAR     57  54  89 SE3       29.94F
ABILENE        CLOUDY    61  59  93 SE13      29.95F
DYESS AFB      NOT AVBL
JUNCTION       MOCLDY    57  56  96 CALM      29.95S
SWEETWATER     CLEAR     57  57 100 SE8       29.97F
BROWNWOOD      PTCLDY    63  63 100 SE3       29.95F FOG
COLEMAN        FOG       61  61 100 N3        29.96S VSB 1
SONORA         PTCLDY    57  57 100 CALM      29.99S
OZONA          PTSUNNY   59  55  88 CALM      29.98R
BRADY          CLEAR     55  55 100 CALM      29.95S
$$

TEXAS PANHANDLE/OKLAHOMA PANHANDLE

CITY           SKY/WX    TMP DP  RH WIND       PRES   REMARKS
AMARILLO       CLOUDY    56  55  97 S10       29.98S
BORGER         CLEAR     57  53  86 S8        29.96F
CANADIAN       CLOUDY    60  56  89 SW7       29.95F
DALHART        PTCLDY    46  24  42 CALM      29.99S
DUMAS          MOSUNNY   46  44  93 SW9       29.97S
GUYMON         NOT AVBL
HEREFORD       SUNNY     40  25  55 N3        29.99S
PAMPA          PTSUNNY   55  53  92 S10       29.97S
PERRYTON       PTCLDY    54  48  81 SE7       29.93S
$$

SOUTHERN PANHANDLE/SOUTH PLAINS/ROLLING PLAINS

CITY           SKY/WX    TMP DP  RH WIND       PRES   REMARKS
LUBBOCK        PTCLDY    55  52  89 S3        29.98R
SNYDER         CLEAR    N/A N/A N/A SE7       29.96R
CHILDRESS      MOCLDY    57  56  96 E6        29.96R
SEMINOLE       MOSUNNY   51  33  50 NW5       30.00R
$$

PERMIAN BASIN

CITY           SKY/WX    TMP DP  RH WIND       PRES   REMARKS
MIDLAND        PTCLDY    56  47  71 VRB3      29.97R
ODESSA         PTCLDY    55  33  43 CALM      29.98S
WINK           MOCLDY    59  15  18 CALM      29.96S
$$

FAR WEST/SOUTHWEST MOUNTAINS/TRANS PECOS

CITY           SKY/WX    TMP DP  RH WIND       PRES   REMARKS
ALPINE         CLOUDY    60  35  38 CALM      30.08F
DRYDEN           N/A     67  63  87 NE5       29.93S
EL PASO        PTCLDY    56  11  16 SE7       30.00S
FORT STOCKTON  PTCLDY    62  35  36 S6        29.99R
GUADALUPE PASS MOCLDY    53   5  14 S8        30.07S
MARFA          CLOUDY    57  34  41 E7        30.07R
PECOS          PTSUNNY   57  28  33 S3        29.98R
$$

DALLAS/FORT WORTH METROPLEX

CITY           SKY/WX    TMP DP  RH WIND       PRES   REMARKS
DFW AIRPORT    CLOUDY    63  61  93 CALM      29.94S
FTW MEACHAM    CLOUDY    64  62  93 S5        29.93F
DAL-EXECUTIVE  CLOUDY    62  61  96 CALM      29.94F
GRAND PRAIRIE  CLOUDY    64  64 100 E3        29.95F
ADDISON        CLOUDY   N/A N/A N/A E3        29.97S
MESQUITE       CLOUDY    63  62  97 CALM      29.95F
LANCASTER      CLOUDY    62  60  94 N3        29.95F
$$

NORTH CENTRAL TEXAS

CITY           SKY/WX    TMP DP  RH WIND       PRES   REMARKS
SHRMAN/DENISON CLOUDY    65  61  85 W6        29.95S
GAINESVILLE    LGT RAIN  61  60  97 SW5       29.99R
BRIDGEPORT     CLOUDY    60  60 100 CALM      29.98S
DENTON         CLOUDY    62  61  96 CALM      29.96S
WAXAHACHIE     CLOUDY    63  63 100 N6        29.95F
GRANBURY         N/A     64  62  91 CALM      29.95F
$$

WESTERN NORTH TEXAS

CITY           SKY/WX    TMP DP  RH WIND       PRES   REMARKS
WICHITA FALLS  CLOUDY    58  56  93 CALM      29.95S
VERNON         PTSUNNY   58  54  85 E3        29.96S
BRECKENRIDGE   PTSUNNY   59  58  97 W3        29.95S
COMANCHE       CLOUDY    60  60 100 SE5       29.96F
$$

CENTRAL AND SOUTH CENTRAL TEXAS

CITY           SKY/WX    TMP DP  RH WIND       PRES   REMARKS
AUSTIN/BERGSTM CLOUDY    64  64 100 NW7       29.89F
WACO           CLOUDY    66  64  93 W5        29.93F
HILLSBORO      CLOUDY    65  62  91 CALM      29.93F
TEMPLE         CLOUDY    63  57  82 N5        29.92F
KILLEEN-GRAY   CLOUDY    64  63  97 NW6       29.91F
FORT HOOD      CLOUDY    63  62  97 NW2       29.92F
GEORGETOWN     CLOUDY    64  61  88 NW5       29.92F
LAGO VISTA     FAIR      64  62  94 NE3       29.94F
SAN MARCOS     CLOUDY    66  63  88 N7        29.90S
NEW BRAUNFELS  CLOUDY    68  65  90 NE8       29.87F
RANDOLPH AFB   CLOUDY    66  66 100 NE6       29.88F
SAN ANTONIO    MOCLDY    68  65  90 N3        29.89F
STINSON        CLOUDY    67  65  93 NE7       29.86F
PLEASANTON     NOT AVBL
LA GRANGE      CLOUDY    69  69  98 SE5       29.87S
GIDDINGS       CLOUDY    67  65  94 E5        29.92F
$$

EAST TEXAS

CITY           SKY/WX    TMP DP  RH WIND       PRES   REMARKS
PARIS          CLOUDY    64  57  77 MISG      29.97S
CLARKSVILLE    NOT AVBL
TYLER          LGT RAIN  68  64  87 N6        29.94F
LONGVIEW       LGT RAIN  69  67  93 NE3       29.92F
PALESTINE      DRIZZLE   67  66  96 E12       29.91F
NACOGDOCHES    CLOUDY    68  66  94 CALM      29.93R
$$

TEXAS HILL COUNTRY AND EDWARDS PLATEAU

CITY           SKY/WX    TMP DP  RH WIND       PRES   REMARKS
LLANO          PTSUNNY   61  61 100 CALM      29.97F
HORSESHOE BAY  FAIR      63  62  96 CALM      29.93F
KERRVILLE      CLOUDY    61  60  96 CALM      29.93F
FREDERICKSBRG  CLOUDY    63  62  97 E6        29.94F
ROCKSPRINGS    CLOUDY    61  59  94 E7        29.97S
HONDO          MOCLDY    63  62  97 N8        29.91F
UVALDE         NOT AVBL
DEL RIO        CLOUDY    65  62  90 E3        29.90S
$$

SOUTHEAST TEXAS

CITY           SKY/WX    TMP DP  RH WIND       PRES   REMARKS
COLLEGE STN    CLOUDY    69  67  93 E7        29.88F
CALDWELL       CLOUDY    66  66 100 CALM      29.91F FOG
CROCKETT       CLOUDY    70  70 100 CALM      29.95F
BRENHAM        CLOUDY    69  68  97 SE6       29.90F
HUNTSVILLE     CLOUDY    68  67  96 CALM      29.90F
CONROE         CLOUDY    68  66  93 CALM      29.91F
HOUSTON BUSH   LGT RAIN  69  68  96 SE10      29.87F
HOUSTON HOBBY  LGT RAIN  69  68  96 SE9       29.89F
PERLAND        NOT AVBL
WHARTON        LGT RAIN  65  65  98 E18       29.85F
$$

THE UPPER TEXAS COAST

CITY           SKY/WX    TMP DP  RH WIND       PRES   REMARKS
ORANGE         RAIN      68  65  91 E7        29.92F
PORT ARTHUR    CLOUDY    69  68  96 CALM      29.92F
GALVESTON      NOT AVBL
ANGLETON       RAIN      66  66 100 CALM      29.93R
BAY CITY       RAIN      68  68 100 E5        29.92F
$$

TEXAS COASTAL BEND, RIO GRANDE PLAINS DEEP SOUTH TEXAS

CITY           SKY/WX    TMP DP  RH WIND       PRES   REMARKS
VICTORIA       CLOUDY    68  67  96 SE15G26   29.80F
BEEVILLE       CLOUDY    68  68 100 S6        29.85R
ROCKPORT       LGT RAIN  73  69  87 E20       29.82F
PORT ARANSAS   CLOUDY    72  71  97 E15G21    29.85F
PORT LAVACA    CLOUDY    70  66  88 E20G25    29.81F
CORPUS CHRISTI CLOUDY    69  67  93 SE8       29.85R
KINGSVILLE NAS CLOUDY    69  68  96 E5        29.86R
COTULLA        CLOUDY    67  65  93 N3        29.86F
LAREDO         CLOUDY    67  66  96 NE3       29.86F
BROWNSVILLE    CLOUDY    76  75  97 E3        29.84F FOG
PORT ISABEL    CLOUDY    76  74  93 NE6       29.84R FOG
HEBBRONVILLE     N/A     68  67  96 NE6       29.86F FOG
MCALLEN        LGT RAIN  79  75  87 E3        29.85F
WESLACO        CLOUDY    76  73  91 N5        29.84F
FALFURRIAS     CLOUDY    69  67  94 E3        29.86S
EDINBURG       LGT RAIN  75  70  84 NW3       29.85F
$$


USA.gov is the U.S. government's official web portal to all federal, state and local government web resources and services.